MARCO-A (43458 NORAD) Tracking and Keplerian Element Data

This shows tracking and keplerian element data for the satellite.

Feedback or suggestion? Click here.




ElementValue
Catalog43458
NameMARCO-A
Epoch Orbit0
Epoch Day125.51663196
Epoch Year2018
RAAN108.8
Inclination63.97
Eccentricity0.0014
Argument of Perigee352.2
Mean Anonmoly89.5396
Mean Motion16.35832554
Decay Rate-2.567E-05
L11 43458U 18042B 18125.51663196 -.00002567 81162-5 00000-0 0 9997
L22 43458 63.9700 108.8000 0014000 352.2000 89.5396 16.35832554 07

Live tracking and technical data element details for MARCO-A (NORAD 43458). MARCO-A can be tracked NOW for your location showing map with azimuth and elevation plus other details from your city location.

Track the satellite on the map from your city or location and see movement details for azimuth, elevation, latitude, longitude, range, height, and movement on the map or in text.







IsCatalogInMostPopularTable: catalog: 43458, numindb: 47
Update: records affected: 1



GetName: 43458 MARCO-A

Hit Count: updated at: Mon, 19 Nov 2018 16:26:31 GMT